RH
68 70 70 75 74 69 71 73 73 70 71 73 72 71 69 71 70 68 67 68 68 66 66 64 59 57 55 53 50 48 45 41 38 36 40 43 45 51 53 51 48 48 50 51 50 46 43 38 33 31 30 29 29 31 33 33 31 29 27 26 26 29 32 33 31 30 31 32 33 33 33 34 35 36 37 39 41 41 40 40 40 42 43 43 43
65 68 66 68 69 67 68 72 74 70 71 74 73 71 69 69 68 69 68 66 65 64 64 61 57 56 55 53 51 49 45 39 37 38 42 44 48 53 53 52 49 49 52 51 47 41 38 36 34 33 32 31 32 34 34 32 28 25 25 25 25 27 29 30 30 31 33 35 36 35 34 32 31 31 32 35 39 41 41 42 43 45 46 45 47
64 64 63 64 65 66 66 68 71 69 70 72 73 71 68 67 68 72 72 69 66 65 61 57 56 55 54 52 50 50 48 44 41 43 44 48 52 54 53 52 51 51 53 51 44 38 38 38 37 37 36 35 35 35 33 30 27 24 23 24 26 28 28 29 30 33 36 38 39 40 39 36 33 30 28 29 33 36 39 40 41 43 44 44 48
63 61 62 64 63 64 65 66 68 69 68 70 71 68 68 67 66 68 69 69 67 65 60 56 55 53 51 50 50 51 52 50 47 46 46 53 56 56 54 52 51 53 52 49 43 41 43 42 39 40 39 37 35 33 31 28 27 26 26 27 28 30 31 33 36 39 41 42 42 43 43 42 40 35 30 28 28 30 33 36 38 40 41 42 46
60 60 61 63 64 63 63 65 68 70 69 68 67 65 67 67 64 63 65 68 65 63 60 57 54 51 49 50 51 54 55 54 51 47 49 56 58 57 55 51 52 53 52 47 44 47 46 42 41 43 41 37 34 32 30 28 27 26 27 28 30 32 35 38 41 42 43 43 43 44 44 44 43 40 36 31 29 30 30 31 33 37 39 42 44
56 56 57 60 61 62 61 63 66 69 68 68 67 64 69 68 64 63 64 65 60 56 56 55 52 50 49 49 51 56 58 57 54 49 51 56 57 57 54 53 54 53 52 47 46 48 46 42 42 45 41 35 31 30 28 27 26 26 27 29 31 34 36 39 41 42 42 42 43 44 45 44 44 44 42 38 34 32 31 31 31 34 39 44 48
52 53 54 55 56 58 58 60 62 65 65 65 65 65 68 66 62 61 60 58 54 52 54 54 51 49 50 50 52 57 60 60 57 52 54 57 56 57 54 54 55 53 51 46 45 47 46 43 44 44 38 33 30 28 27 26 26 27 29 31 32 34 36 37 38 39 40 42 43 44 45 44 45 46 44 43 40 36 33 32 31 32 36 43 49
49 50 52 52 54 55 55 56 56 58 58 57 58 59 61 60 57 57 55 52 51 52 55 54 51 50 49 50 53 57 61 61 59 53 54 57 57 56 54 54 54 53 50 45 45 46 46 45 44 41 35 32 31 29 28 28 29 30 32 32 32 33 35 36 36 37 39 42 43 43 43 43 45 45 44 43 42 40 36 34 33 31 33 38 44
47 49 50 51 53 54 55 54 53 52 51 50 50 49 50 51 51 51 53 52 50 51 53 52 51 52 49 48 52 56 60 61 59 55 54 56 58 57 54 54 53 52 49 44 44 45 44 43 42 39 33 32 31 30 31 30 31 33 33 32 32 34 34 35 36 37 39 41 42 42 41 42 44 43 42 41 42 42 40 39 37 33 32 35 40
46 47 48 50 51 52 52 52 51 50 48 47 46 45 43 45 45 47 50 50 49 48 48 48 48 51 48 46 51 56 60 61 61 57 54 55 59 58 55 54 53 51 47 42 44 43 41 41 39 35 32 33 33 33 35 34 33 33 33 33 34 35 35 36 36 37 39 40 41 40 38 39 41 41 41 40 41 42 42 42 42 40 37 37 41
46 48 49 50 51 50 49 49 49 49 48 47 47 47 45 45 44 45 48 47 48 48 47 46 44 47 46 45 50 54 59 62 62 58 54 54 58 58 55 54 52 50 44 41 43 41 38 38 37 35 33 33 33 35 37 35 33 34 35 36 36 36 36 36 36 36 37 37 38 38 37 37 38 38 39 39 40 41 42 41 42 44 43 43 46
47 48 49 50 51 51 50 51 51 50 49 49 49 50 49 48 48 47 49 49 51 52 49 46 44 46 45 44 48 54 58 61 62 58 54 53 56 57 56 56 53 49 43 41 42 39 37 35 34 33 33 31 32 36 37 35 34 36 36 37 37 37 37 37 36 35 36 36 36 36 36 37 36 35 37 37 38 39 40 40 40 43 46 49 52
48 48 47 49 52 53 54 53 53 53 51 52 51 51 51 52 52 51 52 53 55 55 52 49 47 47 46 46 48 52 58 60 60 57 53 54 57 58 57 58 54 47 41 40 40 37 35 32 29 30 30 29 32 35 36 36 37 38 37 37 37 37 38 37 36 35 34 34 34 34 33 34 33 32 33 35 36 37 36 37 38 42 47 51 53
46 46 46 49 52 52 52 52 52 52 52 52 51 52 53 56 58 56 56 57 59 57 54 53 50 48 48 50 50 52 58 59 57 56 53 54 59 59 57 57 54 46 38 40 40 36 32 27 27 29 29 30 33 35 37 38 37 38 38 38 37 38 39 37 35 34 33 32 32 31 29 29 28 27 29 30 31 32 33 34 37 41 46 51 52
43 43 46 50 53 53 53 54 54 54 55 54 54 55 57 62 63 62 61 58 60 59 57 56 52 52 52 51 51 53 59 58 56 56 52 54 60 60 57 56 52 44 38 40 38 33 29 25 26 29 30 32 34 37 38 38 38 39 39 38 37 38 39 37 36 34 32 31 31 29 27 26 25 24 24 26 27 27 29 31 36 40 43 48 50
42 45 49 54 58 59 59 60 61 61 61 60 61 61 61 64 63 65 67 58 59 61 60 59 54 55 55 53 52 54 59 58 57 56 51 55 59 59 58 56 50 42 38 38 35 31 27 23 26 30 32 34 36 38 39 39 39 39 39 38 37 38 37 37 36 33 33 31 30 29 27 27 26 26 26 27 27 28 30 31 35 38 40 44 46
45 51 55 59 63 63 63 63 64 66 66 65 66 65 65 66 64 69 71 61 62 65 63 62 57 55 57 57 55 55 58 58 58 56 52 56 57 57 57 54 46 39 35 34 33 29 23 23 27 31 35 37 38 39 39 40 39 39 39 38 38 37 36 36 34 33 33 32 30 30 29 29 29 29 30 31 32 33 35 37 39 40 40 41 42
54 58 60 63 65 64 62 63 63 64 66 66 66 67 69 71 69 71 70 66 68 68 65 65 61 59 60 62 58 56 59 59 59 56 54 56 56 55 54 50 42 34 32 32 30 25 21 23 30 34 37 39 39 39 39 40 39 38 38 38 38 37 36 36 34 33 34 33 32 32 32 32 31 32 34 35 37 39 41 42 43 43 42 43 43
60 63 63 63 64 63 62 61 62 62 63 63 64 66 71 75 74 72 71 69 70 68 67 67 65 63 64 63 61 59 59 60 61 59 56 56 55 51 49 48 39 30 30 30 27 22 21 28 34 37 39 39 39 39 40 40 38 38 38 38 38 37 36 35 34 35 36 35 35 35 34 32 32 34 36 38 39 42 44 43 43 43 43 44 45
61 63 63 62 63 63 61 60 60 61 61 62 65 67 72 76 75 74 74 70 69 68 67 69 68 66 65 64 64 64 61 63 64 61 57 54 51 47 47 44 33 28 29 28 25 22 25 32 37 39 40 40 40 40 40 39 37 38 38 37 37 37 36 35 35 37 37 38 38 37 35 32 32 34 37 40 42 43 44 42 41 42 42 42 42
60 62 61 61 62 61 60 59 59 59 60 61 64 68 71 75 75 74 75 72 70 70 68 70 69 65 66 67 67 66 66 68 67 62 56 52 47 44 44 37 28 28 29 27 26 25 29 35 39 40 41 41 40 40 39 38 37 38 38 37 36 37 35 34 36 38 39 39 38 37 35 32 30 32 36 40 42 43 43 42 40 41 40 40 39
61 61 60 59 59 59 58 58 58 58 59 59 62 66 70 74 75 73 74 73 72 73 71 69 68 67 68 70 68 67 70 71 68 62 55 51 46 43 40 32 27 30 30 29 28 28 31 36 40 41 41 40 40 40 38 36 36 37 37 37 37 37 35 36 38 39 38 38 37 36 34 31 29 30 32 37 42 43 42 42 41 40 40 39 37
61 59 57 57 58 58 57 57 57 57 57 58 61 66 71 75 76 74 74 75 73 73 73 71 70 71 72 72 71 70 72 72 68 61 54 51 47 42 38 31 29 29 30 32 30 29 33 38 41 41 40 40 40 38 36 35 36 36 37 37 37 36 36 37 39 38 38 37 37 35 34 32 31 30 30 33 39 42 41 41 40 39 41 40 38
60 58 56 56 56 55 55 55 56 57 58 60 63 69 74 76 77 77 76 76 77 76 75 74 73 74 75 73 74 73 73 72 67 59 54 52 49 44 38 32 28 28 31 33 31 30 34 39 41 41 40 40 39 37 34 35 35 36 37 38 37 36 36 38 40 39 38 38 38 37 37 37 35 33 30 31 35 40 42 42 41 40 40 40 39
59 57 56 55 53 53 54 56 56 57 60 62 65 69 72 74 75 76 76 76 79 78 76 76 74 76 76 74 75 74 73 72 65 58 54 53 50 44 37 30 26 28 32 34 32 31 35 39 41 40 39 39 38 36 34 34 34 36 39 39 38 37 38 41 42 41 40 40 40 41 41 41 39 37 34 32 32 35 39 42 43 41 40 39 38
56 54 54 53 51 52 54 56 56 57 60 63 65 65 67 71 72 71 73 75 77 77 75 76 76 77 77 75 75 74 73 69 62 57 55 53 49 42 34 27 26 30 34 36 33 32 35 40 41 40 39 39 37 35 34 34 34 36 39 39 38 39 40 43 44 43 42 41 42 43 44 44 43 41 39 37 33 31 32 35 38 40 41 39 35
54 51 50 50 51 53 54 55 55 57 60 62 62 63 66 70 70 70 72 73 74 75 75 76 77 77 76 76 74 72 70 64 61 59 55 52 46 38 31 26 28 31 35 37 34 32 36 40 41 40 39 39 37 35 35 35 34 36 38 39 39 39 40 43 44 45 44 43 43 44 45 46 45 44 43 40 37 33 31 31 32 35 39 38 34
53 48 47 48 50 52 52 54 55 56 58 60 60 62 66 68 70 72 72 72 74 75 75 76 77 77 76 75 72 68 65 63 62 60 54 48 41 34 30 27 29 32 36 38 34 32 35 40 41 39 39 39 37 35 35 36 35 35 36 37 38 39 40 42 44 45 45 43 43 44 46 47 47 46 44 43 40 37 34 32 31 32 34 35 33
51 46 46 47 47 49 49 52 54 55 56 57 59 61 66 70 72 74 74 75 76 76 76 77 77 77 75 72 68 64 64 63 61 58 51 44 37 33 30 28 29 33 37 38 34 31 34 39 40 39 40 39 36 35 35 36 36 36 36 36 37 39 40 42 43 45 45 45 44 45 46 47 47 46 45 44 43 41 38 36 35 33 34 33 32
48 45 46 46 46 48 49 51 52 52 53 55 58 61 66 71 74 75 75 76 77 77 77 77 77 75 73 68 64 63 64 62 59 55 48 40 35 32 30 28 30 34 37 39 35 30 32 38 40 39 39 38 35 33 34 35 36 37 37 37 37 38 39 41 43 45 46 46 46 45 46 47 48 47 46 45 44 43 42 41 39 38 36 33 31
46 45 45 45 47 48 49 50 50 50 51 53 56 61 68 71 73 75 75 76 77 77 77 76 75 72 69 65 63 63 62 60 58 52 43 36 34 32 29 27 30 34 38 40 36 31 31 36 39 39 39 38 34 32 33 34 35 36 36 36 36 37 39 40 43 45 46 47 47 47 47 47 47 47 47 47 46 45 44 43 43 42 40 37 33
45 45 45 45 48 48 49 49 48 48 49 52 55 61 68 70 72 73 73 74 75 75 74 73 72 71 67 63 63 63 62 60 55 46 38 36 37 35 30 27 30 34 37 39 38 33 30 34 38 39 39 39 35 33 33 33 35 36 36 37 36 37 38 40 43 45 47 48 49 49 49 48 48 48 48 47 48 48 47 46 46 45 43 41 38
46 45 44 45 47 48 50 49 47 46 47 51 55 61 65 68 70 71 70 71 72 72 72 71 70 69 66 63 63 62 60 56 48 41 38 40 42 38 33 29 30 33 36 39 39 36 31 32 37 38 39 39 37 33 32 33 34 36 37 37 37 39 40 42 44 46 47 48 50 50 50 49 49 50 50 49 49 49 48 48 47 47 46 43 41
46 44 44 45 45 46 49 49 46 44 46 51 56 59 62 66 68 68 68 70 70 69 68 68 68 67 64 63 61 58 54 48 42 39 40 42 41 38 35 31 30 32 35 38 39 37 32 31 35 39 40 40 39 35 32 32 33 35 36 37 40 43 44 44 46 48 49 49 51 51 51 50 50 51 51 50 50 50 50 50 49 48 47 45 44
45 44 45 45 44 44 47 48 46 44 46 51 56 58 59 64 66 67 67 68 68 68 67 67 66 64 61 58 54 50 46 42 40 39 40 41 39 38 36 33 31 31 34 37 38 37 32 30 33 37 40 42 41 38 35 33 33 35 37 40 44 45 45 45 46 48 49 49 49 50 51 50 49 50 51 51 50 51 51 51 50 49 47 46 45
45 45 46 45 43 43 45 45 45 44 46 51 55 56 57 61 64 66 66 66 66 65 64 62 60 56 52 48 46 43 41 39 39 39 39 40 40 39 38 35 33 31 33 35 37 37 33 29 31 36 40 42 43 41 38 36 36 36 39 44 46 47 46 46 46 47 47 48 48 48 48 47 46 48 51 51 51 52 52 52 51 48 46 46 45
45 46 46 45 43 43 44 43 43 44 46 49 53 55 55 57 60 62 63 63 61 58 55 51 48 46 44 42 41 40 39 38 38 40 40 40 41 40 39 37 35 33 32 34 36 37 34 30 30 34 38 41 43 43 40 39 38 39 42 45 46 47 47 47 47 47 47 47 48 48 47 46 45 47 50 52 53 54 53 52 50 48 46 45 44
45 45 45 45 43 42 43 43 42 43 45 48 50 52 53 53 55 55 55 54 51 47 45 43 42 41 40 39 38 37 37 37 39 40 40 42 42 41 40 38 37 35 33 33 34 36 35 32 31 32 35 40 43 43 41 40 39 40 42 44 45 47 47 46 47 47 47 46 46 46 46 46 46 47 50 54 56 56 55 53 51 49 47 45 44
45 44 44 45 44 42 42 42 40 40 42 45 47 48 50 51 51 50 49 46 44 42 41 40 40 39 39 38 37 36 37 38 39 41 42 43 43 42 41 40 39 37 35 33 34 35 36 35 33 32 33 37 41 42 42 41 40 40 42 42 43 44 45 45 46 46 46 45 44 45 46 46 46 48 52 55 57 58 57 55 53 50 48 46 45
45 43 44 45 45 42 41 41 39 38 39 42 44 44 45 46 46 47 47 44 43 42 41 40 39 39 40 40 39 39 40 41 42 43 44 44 42 42 42 42 41 39 37 35 35 36 37 37 36 33 32 34 37 39 40 40 40 40 41 41 42 43 44 45 45 45 44 44 44 45 48 49 48 50 53 57 59 59 59 58 56 53 49 47 45
44 42 43 44 45 43 41 41 39 37 38 40 41 41 41 41 42 42 43 43 43 42 41 40 41 42 42 43 43 43 44 45 46 46 45 43 42 42 42 43 43 41 38 36 35 37 37 37 37 35 33 33 35 38 38 38 40 41 41 42 42 43 43 44 44 44 44 44 44 47 51 52 53 54 56 60 62 60 59 60 58 55 51 47 46
43 42 42 43 44 43 42 40 39 38 37 39 40 40 39 39 39 38 38 40 42 42 42 43 44 46 46 45 45 46 46 47 47 47 44 42 42 42 42 42 43 42 40 38 36 37 38 38 37 37 36 35 35 37 37 37 38 39 40 41 42 43 43 44 45 46 45 45 47 51 54 55 58 60 62 64 63 59 59 60 59 57 53 48 47
43 42 42 42 42 43 42 40 40 39 37 37 39 40 40 40 40 39 38 38 40 42 44 45 47 48 47 46 46 46 45 45 45 43 42 42 43 44 43 43 44 44 43 42 39 37 37 37 38 38 39 38 37 35 35 35 36 36 39 41 41 43 44 44 45 46 46 47 51 53 55 59 63 66 66 65 63 61 59 60 61 60 57 51 49
43 41 41 42 41 42 42 39 40 40 37 35 36 38 40 41 41 40 39 39 40 42 43 45 45 45 45 45 45 44 43 43 43 44 44 43 44 44 45 45 46 46 45 44 41 38 36 36 37 39 41 41 40 37 35 34 34 35 38 40 39 41 44 45 44 45 47 51 53 54 59 64 66 67 68 65 63 62 59 61 63 63 61 55 52
43 40 40 41 41 41 42 40 39 40 37 34 34 35 37 38 40 41 40 40 41 41 42 42 42 43 43 42 42 41 41 42 43 45 45 45 45 44 44 45 46 47 46 44 43 41 37 36 37 40 42 42 43 41 39 37 37 38 39 40 39 40 44 45 44 46 49 51 54 57 63 66 65 66 67 65 63 62 61 61 62 62 60 56 53
42 40 38 40 40 40 41 40 39 39 38 36 35 34 35 36 37 39 39 40 40 39 39 39 40 41 41 41 40 39 40 41 43 44 45 45 45 45 44 44 45 46 46 46 46 45 41 37 37 40 43 43 44 44 44 43 43 44 43 41 41 41 44 45 46 49 51 53 56 60 62 64 65 66 66 64 62 62 61 60 60 59 58 55 52
43 41 38 37 39 39 39 39 40 40 39 39 39 37 37 37 36 36 37 37 37 37 36 37 38 39 39 38 38 38 40 41 42 44 44 45 45 45 44 44 44 44 44 46 49 48 45 40 38 40 43 44 45 47 48 47 48 49 46 43 42 42 44 47 50 54 56 56 58 58 59 61 63 64 65 64 63 61 59 58 57 54 54 52 49
44 42 39 36 37 38 37 38 40 41 40 40 42 41 39 39 38 36 36 35 35 35 35 36 37 38 38 38 37 38 39 39 41 42 43 43 43 43 43 43 43 43 43 45 48 49 47 44 41 41 42 44 45 47 48 49 49 49 46 44 44 44 46 50 52 54 55 57 57 56 56 58 59 62 63 62 60 58 55 55 54 51 49 47 46
45 44 42 38 36 37 36 36 38 41 41 41 44 43 40 39 39 38 37 37 36 35 36 37 37 38 39 40 39 38 38 37 37 39 41 41 42 42 41 42 43 43 43 45 47 48 47 46 44 43 42 43 44 45 47 49 49 49 46 45 45 45 47 50 52 53 54 55 56 55 55 56 58 59 59 57 56 54 52 52 52 50 47 45 44
45 44 44 40 37 36 36 35 36 38 40 42 44 44 42 39 38 38 38 38 37 36 36 37 37 37 38 39 39 39 38 37 36 37 39 39 40 41 40 41 43 43 43 45 48 48 48 47 46 44 43 42 43 44 46 47 48 48 46 45 45 45 47 49 52 54 54 54 55 55 54 55 57 57 55 53 52 51 50 51 52 50 47 45 44
45 44 44 43 40 38 36 36 35 36 39 40 42 43 43 41 40 40 39 38 37 36 35 35 35 36 36 37 37 38 38 37 37 38 38 37 37 38 39 40 43 44 44 45 47 48 48 48 47 45 43 42 42 43 44 46 46 47 45 44 44 46 47 49 51 52 52 53 53 53 53 54 55 56 55 52 51 50 50 50 50 48 46 45 45